RH
100 84 100 77 63 58 100 83 30 28 21 30 100 100 76 100 97 97 76 68 62 46 34 32 28 29 30 29 24 23 28 26 20 19 17 21 21 38 38 34 29 38 39 40 56
56 100 100 94 60 50 97 95 41 32 30 17 56 100 87 100 100 85 69 78 76 70 49 31 28 30 29 27 30 28 24 21 18 17 17 19 17 19 19 21 22 31 35 43 47
80 100 100 92 93 62 100 100 72 38 35 27 47 90 90 85 100 100 80 72 79 78 65 56 42 31 32 30 30 30 27 23 20 20 20 21 20 18 19 18 19 29 56 59 44
100 92 100 100 100 70 98 75 62 46 68 35 22 78 100 97 90 100 100 98 100 100 71 57 58 47 35 31 29 29 26 25 25 21 21 23 20 16 16 15 18 25 23 23 21
100 93 70 100 100 87 87 79 77 51 54 36 33 35 100 100 86 91 78 78 92 100 87 63 56 57 52 41 34 34 27 29 26 22 21 21 19 18 18 19 23 24 23 21 23
100 100 91 82 88 100 66 61 100 100 57 47 40 25 48 100 100 94 90 86 78 93 84 55 59 56 51 47 43 39 37 28 25 24 22 20 20 21 23 26 35 25 28 30 40
99 100 77 66 69 100 86 48 59 100 74 55 36 39 26 21 97 100 100 100 82 77 87 57 64 66 58 45 45 42 43 32 27 25 24 24 22 26 25 26 24 27 39 39 39
96 100 100 81 93 100 94 44 37 100 97 64 74 39 36 22 20 67 93 100 100 100 99 100 95 53 58 54 39 39 41 32 28 26 25 23 22 23 22 23 31 24 24 54 82
100 94 100 66 80 100 96 52 32 100 94 72 77 42 28 37 29 16 16 64 100 98 90 100 100 89 70 46 35 31 34 32 27 27 25 24 24 27 28 28 32 45 89 99 100
100 97 100 69 99 100 100 84 31 78 100 100 79 49 38 39 37 30 17 15 19 38 62 68 62 66 40 32 40 36 31 34 31 28 25 24 25 28 41 61 77 92 100 100 100
100 100 100 86 66 100 95 100 36 49 100 100 89 75 45 38 38 38 26 17 19 32 29 28 33 32 30 39 51 59 37 33 28 28 30 42 56 59 70 85 88 100 100 100 98
100 100 96 68 77 100 100 69 84 41 67 100 100 91 45 45 49 40 32 23 25 31 33 50 60 44 50 49 54 51 37 31 34 50 58 74 87 86 100 100 100 100 98 87 74
99 100 100 79 60 94 100 74 87 49 66 100 100 86 53 41 41 44 37 29 52 70 53 58 36 64 60 54 65 91 61 51 71 83 88 99 99 100 100 100 94 80 94 93 84
100 100 100 100 88 100 100 72 91 85 72 84 100 87 56 44 46 57 56 22 86 80 83 90 83 71 53 69 99 92 87 94 93 92 100 99 94 86 72 81 86 80 59 47 35
100 100 100 100 100 100 100 73 74 98 51 52 100 96 73 45 36 92 69 30 26 26 59 39 93 100 100 79 75 71 92 92 87 89 84 78 72 70 60 58 58 42 19 16 14
100 100 100 100 98 100 100 74 83 100 68 54 100 100 94 81 52 76 69 43 34 28 21 15 16 48 90 100 100 100 88 94 87 76 64 46 39 41 34 22 16 15 14 13 14
100 100 100 100 100 100 99 80 100 100 75 74 83 100 99 91 54 61 64 41 35 32 31 29 24 15 14 20 35 44 37 25 17 17 17 16 16 15 15 15 16 16 19 24 29
78 99 100 100 100 100 88 86 100 100 89 75 57 100 100 99 49 62 68 51 46 41 39 33 29 28 19 17 18 18 17 16 16 16 17 18 16 17 19 22 28 34 37 40 42
28 62 99 100 100 100 94 100 100 100 100 79 67 79 100 100 82 58 86 72 87 77 60 36 36 33 35 36 36 37 37 36 37 36 39 36 37 35 37 40 41 42 44 43 47
25 43 80 100 100 100 100 100 100 100 100 88 72 63 100 99 71 58 85 96 100 100 74 45 42 43 41 40 33 34 35 37 39 43 46 43 46 51 52 47 46 45 46 48 50
25 32 64 100 100 100 100 100 100 100 100 94 68 57 98 100 100 54 61 76 96 100 93 71 56 58 54 47 46 44 40 37 37 39 40 42 42 52 52 62 68 71 74 76 73
26 27 49 100 100 100 100 100 100 100 100 98 79 64 60 100 100 86 71 90 84 90 100 91 74 66 68 57 57 49 50 40 42 44 44 42 47 47 56 66 68 73 82 88 87
26 24 42 82 100 97 100 100 100 100 100 100 81 51 43 100 100 100 98 73 69 69 75 100 97 80 71 67 66 62 57 50 47 42 43 44 46 47 46 52 58 67 78 80 78
24 21 29 78 100 100 100 100 100 100 100 100 87 61 59 100 100 100 100 85 80 63 60 63 99 99 83 76 68 73 76 70 62 56 54 54 57 52 49 49 53 63 73 89 100
22 20 25 93 100 100 100 96 98 100 100 100 84 84 89 80 100 100 100 98 89 76 64 48 48 56 75 78 73 67 80 91 89 73 70 67 64 60 57 53 51 66 88 100 84
23 22 27 87 100 100 100 100 100 100 100 100 100 100 100 87 79 97 100 100 89 77 62 52 49 92 84 73 80 82 100 97 100 99 79 79 76 66 60 59 55 66 67 62 70
22 22 22 76 99 100 100 100 100 100 100 100 100 100 100 100 68 57 100 100 74 58 61 63 60 64 89 95 93 85 90 97 100 100 94 90 79 67 60 57 56 54 70 77 68
Wind_Speed
42 44 38 31 32 32 31 24 19 18 19 42 50 45 42 39 36 35 40 38 35 35 36 37 35 33 34 35 32 34 41 39 34 34 33 33 36 45 48 48 47 52 56 60 66
49 49 45 35 34 34 32 30 23 21 21 28 51 50 47 42 40 38 41 39 39 36 37 39 38 37 39 37 37 37 40 42 35 32 32 35 35 36 37 38 39 45 50 56 64
52 54 44 44 39 37 34 31 26 23 22 20 43 48 47 49 43 38 37 40 38 38 40 39 41 41 42 40 40 38 43 43 40 32 33 37 41 39 39 39 41 44 51 56 60
57 58 54 43 44 40 37 33 27 24 23 21 30 49 44 46 48 45 39 40 39 38 43 43 44 43 44 44 40 42 44 44 48 40 37 38 44 42 41 42 42 45 50 53 57
63 61 62 49 45 39 44 36 31 25 23 24 23 45 47 46 44 47 44 43 41 40 46 46 48 46 46 47 43 44 45 46 49 47 42 41 45 44 46 45 46 49 51 54 57
68 64 63 59 59 47 46 40 37 36 28 26 27 29 53 51 44 50 49 48 46 46 47 48 46 50 50 51 48 46 49 50 50 51 48 46 44 43 41 44 45 50 52 52 54
73 69 67 63 58 53 52 44 39 38 31 27 30 29 33 38 57 59 51 51 50 51 48 47 47 48 49 52 51 49 50 54 53 53 51 47 45 42 43 45 48 49 50 55 58
77 72 69 65 57 60 53 49 43 38 33 32 30 33 30 24 44 60 57 54 51 52 51 51 51 52 51 51 53 54 53 55 54 53 53 50 48 48 51 50 50 55 55 51 56
80 76 73 70 59 51 51 48 45 43 40 37 36 31 26 29 29 30 40 58 64 59 56 57 56 53 55 57 56 55 55 56 55 54 54 52 49 48 50 52 54 54 53 54 61
83 78 76 71 66 56 53 50 48 45 43 40 35 29 29 31 31 27 30 37 48 56 60 60 60 61 59 56 56 52 54 54 53 52 50 50 50 50 50 49 52 55 56 60 63
86 81 79 75 72 62 56 54 50 49 48 45 36 30 33 30 30 25 24 28 33 41 47 49 54 55 51 51 51 49 50 49 49 48 46 46 48 47 47 48 53 56 60 64 68
86 83 80 76 76 69 64 55 57 55 47 48 42 36 35 30 29 24 23 26 32 34 34 40 43 43 44 45 44 45 47 46 45 45 45 45 45 43 47 50 55 59 63 68 73
91 87 83 79 73 70 66 64 60 53 53 50 44 36 36 30 29 28 24 23 20 25 31 35 34 37 36 38 39 42 43 40 41 43 42 44 45 48 50 55 62 65 67 70 75
90 86 88 81 76 69 67 67 59 60 57 53 47 40 34 30 29 30 23 23 29 25 24 24 27 32 34 35 40 41 38 41 45 46 47 48 47 50 56 59 62 64 66 65 67
92 87 86 85 79 75 75 67 62 63 58 52 50 42 35 34 33 27 24 18 19 23 29 27 32 37 38 34 39 42 43 45 47 52 53 52 50 53 57 57 56 58 58 57 61
92 89 83 84 84 81 78 67 64 62 60 54 51 43 37 35 35 29 23 19 15 19 20 18 21 28 31 37 40 42 42 43 44 45 47 49 48 48 49 51 51 53 56 58 60
91 90 83 83 87 83 77 71 65 59 62 60 52 49 39 34 31 31 26 20 18 17 15 16 21 23 22 23 27 32 36 39 40 39 39 40 43 44 47 47 49 51 55 58 60
88 90 88 83 85 83 79 72 63 65 65 62 54 45 43 32 33 32 30 25 22 20 16 14 15 18 20 20 22 25 30 33 36 37 39 40 42 44 44 46 49 52 55 56 54
87 88 91 88 86 84 80 73 70 68 63 62 58 48 47 37 34 33 34 31 27 23 18 10 11 14 16 19 20 23 27 30 34 36 37 40 41 42 44 46 47 50 51 52 53
90 89 89 88 87 84 79 76 72 67 63 64 60 53 47 45 38 37 32 31 31 28 23 16 12 14 17 20 20 22 24 27 29 31 36 37 38 39 40 43 47 50 52 54 56
93 92 87 87 89 83 77 77 71 67 66 66 62 57 44 45 41 40 34 29 28 32 30 23 18 16 18 23 23 23 24 26 27 30 34 37 38 39 43 46 49 52 54 56 58
96 92 88 87 87 82 78 78 73 69 68 67 65 60 52 46 42 38 32 31 29 27 33 28 24 20 20 22 25 24 26 26 27 30 33 36 40 43 45 47 50 52 55 57 60
99 93 89 84 83 82 81 80 75 71 69 66 66 58 53 48 48 42 39 36 33 31 27 31 29 24 23 25 28 29 28 28 29 31 33 36 41 44 47 48 51 54 56 58 61
102 96 89 83 81 84 84 81 75 74 69 66 62 60 53 46 47 45 38 33 31 29 29 29 30 29 28 26 27 30 32 31 33 34 36 39 43 47 50 51 52 53 55 57 59
101 92 84 79 76 82 85 81 78 73 72 67 58 54 52 54 47 45 40 36 32 29 29 28 29 26 28 29 30 32 33 35 37 38 40 42 45 50 53 55 55 56 58 61 67
99 92 87 82 83 85 85 83 80 74 71 69 63 57 52 54 53 47 41 39 34 29 30 29 24 27 29 28 30 34 38 40 41 41 43 45 47 52 57 58 58 57 59 59 64
99 91 89 85 80 82 82 83 81 75 71 67 65 58 53 55 51 46 45 40 33 31 29 28 29 28 29 29 31 34 39 41 42 43 45 46 50 55 58 58 56 56 58 62 65
Wind_Direction
236 246 237 237 249 239 249 250 251 251 262 223 221 224 222 224 228 233 237 238 240 240 235 235 239 243 247 253 256 258 260 260 260 259 266 269 272 272 274 278 280 277 277 277 274
231 237 234 250 249 234 244 243 250 249 254 240 222 226 225 225 228 232 233 239 244 243 243 241 240 242 248 251 255 258 261 262 263 268 276 277 278 277 279 280 282 280 280 279 279
231 227 231 248 252 230 237 243 246 251 249 257 227 224 225 222 228 230 235 236 242 247 247 246 246 245 249 250 254 261 263 269 269 272 276 278 278 278 278 278 278 278 278 274 274
227 223 230 238 245 238 230 234 237 243 247 246 232 223 225 227 227 230 233 235 240 247 248 249 251 252 253 255 258 260 261 269 272 268 269 275 280 280 284 284 284 284 284 284 285
225 224 229 234 239 248 227 227 235 244 237 235 235 226 227 230 231 235 234 237 237 245 245 246 251 255 256 258 258 261 263 265 270 273 272 273 275 285 293 293 290 285 285 289 291
222 224 227 230 235 243 231 223 239 246 237 241 232 231 227 227 229 238 242 242 243 243 247 246 250 254 257 259 261 263 266 265 268 274 275 276 282 290 289 288 284 289 292 293 291
223 223 224 232 233 244 235 226 226 245 240 242 237 233 235 237 232 237 235 240 244 244 250 253 255 254 258 259 263 264 266 267 269 272 279 282 282 283 283 281 287 289 288 289 292
224 222 219 226 226 240 226 227 227 242 234 237 239 237 238 241 235 239 237 237 237 242 247 250 256 257 261 266 264 265 267 268 270 274 277 280 283 285 286 290 287 289 292 295 294
223 220 221 224 221 227 225 224 223 234 234 233 233 236 242 241 251 254 244 242 241 246 249 253 256 259 262 265 264 266 268 269 268 272 277 282 286 288 287 290 293 296 293 291 289
223 219 219 222 216 220 222 221 223 227 235 229 226 233 243 241 248 254 249 246 245 246 248 252 255 258 261 263 265 267 269 272 273 276 280 283 285 288 292 292 292 290 289 289 292
221 219 217 219 218 218 223 224 223 223 229 231 222 241 247 247 247 260 264 254 251 246 247 250 253 256 259 259 262 266 267 270 276 278 280 281 284 286 286 290 291 291 292 294 297
220 222 217 218 220 222 223 226 222 224 222 235 240 237 246 247 244 250 265 254 246 246 246 246 247 255 257 260 263 263 267 273 272 276 277 280 284 283 287 289 287 288 289 289 291
217 220 219 216 218 222 221 224 219 224 225 229 235 236 240 244 243 245 264 260 252 255 249 248 253 254 256 257 257 260 266 267 272 278 281 282 283 283 282 283 285 289 289 290 290
215 217 217 216 214 216 217 222 221 223 223 225 234 231 236 242 240 247 257 257 248 254 257 259 258 259 261 258 256 260 266 269 271 272 275 281 284 284 284 284 286 289 290 294 296
212 215 216 216 214 214 219 220 222 220 222 223 231 229 229 235 239 260 240 244 256 256 255 265 260 260 260 267 268 270 268 274 278 280 283 286 286 284 285 288 289 291 296 297 296
210 210 214 214 216 215 217 218 223 221 221 224 228 222 230 234 239 251 237 239 251 257 262 261 260 259 262 261 266 271 273 274 278 281 284 286 289 289 290 293 296 298 298 300 304
209 209 209 213 214 214 214 216 220 221 221 223 218 226 234 229 245 247 229 236 242 253 251 259 266 270 273 274 272 276 279 283 285 288 290 292 291 294 296 299 300 301 305 309 312
208 209 209 210 213 213 214 214 218 221 219 222 219 226 229 230 245 242 230 236 242 248 257 271 283 278 277 282 284 281 284 288 292 294 296 295 295 300 302 305 308 312 313 316 315
204 208 210 209 212 212 213 214 217 218 219 220 220 220 228 231 244 238 234 238 240 244 251 263 289 291 286 285 288 293 291 293 293 292 294 295 299 302 308 310 313 314 315 317 319
203 206 208 209 210 210 210 212 214 216 218 220 222 218 228 233 242 239 233 238 244 242 247 255 270 287 292 292 291 297 303 304 307 305 302 305 307 311 310 310 311 312 316 317 317
201 204 205 207 208 208 207 212 212 213 217 218 221 218 224 228 233 236 236 236 242 246 246 253 259 273 287 296 303 309 314 314 310 308 313 315 315 314 314 316 314 314 314 315 315
200 202 204 204 207 208 211 212 210 212 217 217 219 221 221 227 226 227 232 235 239 247 245 249 257 269 285 292 296 298 306 314 316 321 321 321 320 321 317 313 313 313 314 316 317
199 199 201 201 206 207 209 211 208 211 215 216 218 219 219 227 231 232 233 236 244 247 248 252 256 267 279 286 290 296 302 306 314 321 323 323 325 327 322 317 316 315 313 314 317
197 197 198 199 203 205 207 207 207 210 213 210 213 217 215 224 227 230 232 240 244 248 249 248 257 268 274 277 286 295 298 304 308 314 318 322 327 326 327 323 319 316 318 319 318
195 194 194 197 198 202 206 206 205 210 212 207 206 211 216 221 227 231 232 237 239 245 255 258 259 265 269 275 283 291 296 299 302 308 313 320 325 328 327 325 323 319 318 315 315
192 191 191 194 198 198 202 203 203 207 211 210 209 213 215 222 224 230 237 237 238 247 258 264 264 271 268 274 284 291 298 304 303 303 310 319 325 327 327 326 326 321 320 322 325
189 190 192 195 196 199 200 200 202 205 209 209 209 210 213 220 226 230 234 236 243 249 253 260 261 264 271 278 282 289 296 303 305 305 309 316 322 326 326 324 324 323 323 325 325